[[{"header":{"parameterUnit":"m.s-1","parameterCategory":1,"la1":30.2991,"la2":30.254,"lo1":-89.0895,"lo2":-89.0444,"dy":0.0017,"dx":0.0017,"nx":28,"ny":28,"refTime":"2024-05-31T03:00:00:Z","depth":0,"parameterNumber":2,"parameterNumberName":"U-component_of_WINDS"},"data":[0,0,0,0,0,0,0,0,0,0,0,0,0,0,0,0,0,0,0,0,0,0,0,0,0,0,0,0,0,0,0,0,0,0,0,0,0,0,0,0,0,0,0,0,0,0,0,0,0,0,0,0,0,0,0,0,0,0,-3.4871,-3.4873,0,-3.4995,-3.4997,-3.4998,-3.5026,-3.5025,-3.5024,-3.5023,-3.5149,-3.5153,-3.5157,0,0,0,0,0,0,0,0,0,0,0,0,0,-3.4657,-3.466,-3.4871,-3.4873,-3.4874,-3.4995,-3.4997,-3.4999,-3.5026,-3.5025,-3.5024,-3.5023,-3.5147,-3.5152,-3.5157,0,0,0,0,0,0,0,0,0,0,0,0,0,-3.4762,-3.4662,-3.4871,-3.4902,-3.4906,-3.4995,-3.4997,-3.4999,-3.5026,-3.5025,-3.5023,-3.5022,-3.5146,-3.5152,-3.5158,-3.5224,0,0,-3.5177,-3.518,0,0,0,0,0,0,0,0,-3.4756,-3.477,-3.4896,-3.49,-3.4905,-3.4994,-3.4967,-3.5074,-3.5026,-3.4981,-3.5023,-3.5021,-3.5098,-3.5108,-3.5135,-3.5229,-3.5235,-3.5178,-3.5182,-3.5184,-3.5186,0,0,0,0,0,0,0,-3.4749,-3.4765,-3.492,-3.4898,-3.4903,-3.491,-3.4924,-3.4988,-3.5045,-3.4984,-3.4987,-3.5001,-3.51,-3.5128,-3.5138,-3.5237,-3.5178,-3.5183,-3.5187,-3.519,-3.5391,-3.5393,0,0,0,0,0,0,-3.4736,-3.4758,-3.4916,-3.4924,-3.4826,-3.4915,-3.493,-3.4967,-3.5045,-3.5055,-3.5002,-3.5002,-3.5118,-3.513,-3.5142,-3.5223,-3.5184,-3.519,-3.5194,-3.539,-3.5392,-3.5394,0,0,0,0,0,0,-3.4731,-3.475,-3.4911,-3.4842,-3.4863,-3.492,-3.4961,-3.497,-3.4998,-3.5058,-3.5068,-3.502,-3.5118,-3.5133,-3.5203,-3.5228,-3.5193,-3.5199,-3.5388,-3.539,-3.5393,-3.5386,0,0,0,0,0,0,-3.4725,-3.4748,-3.4773,-3.4842,-3.4867,-3.497,-3.4962,-3.4973,-3.5009,-3.501,-3.5078,-3.5088,-3.5118,-3.5194,-3.5209,-3.5236,-3.5204,-3.5386,-3.5389,-3.5392,-3.5384,-3.5388,-3.5391,0,0,0,0,0,-3.4717,-3.4767,-3.4775,-3.4794,-3.49,-3.4972,-3.4986,-3.502,-3.5011,-3.5036,-3.5075,-3.5086,-3.5223,-3.5201,-3.5219,-3.5247,-3.5384,-3.5388,-3.5392,-3.5383,-3.5387,-3.5391,0,0,0,0,0,0,-3.4699,-3.4776,-3.4786,-3.4859,-3.4909,-3.4976,-3.501,-3.5023,-3.5076,-3.5075,-3.5114,-3.513,-3.5197,-3.523,-3.5203,-3.5315,-3.5303,-3.5311,-3.5291,-3.5295,-3.5299,-3.5289,-3.5209,0,0,0,0,0,-3.4703,-3.4755,-3.482,-3.4879,-3.4903,-3.4952,-3.4985,-3.5007,-3.506,-3.5081,-3.5125,-3.5175,-3.523,-3.5265,-3.5318,-3.539,-3.5405,-3.5419,-3.5422,-3.5425,-3.543,-3.547,-3.5477,-3.5405,-3.5405,-3.5405,0,0,-3.4713,-3.4762,-3.4792,-3.4876,-3.4917,-3.497,-3.497,-3.5025,-3.5065,-3.5089,-3.5157,-3.5192,-3.5251,-3.5321,-3.5355,-3.5351,-3.5454,-3.5429,-3.5431,-3.5435,-3.5474,-3.5481,-3.5487,-3.5408,-3.5407,-3.5407,0,0,-3.4757,-3.4799,-3.4852,-3.4894,-3.4956,-3.4988,-3.5001,-3.5067,-3.5091,-3.516,-3.5179,-3.5227,-3.5321,-3.5362,-3.5395,-3.5455,-3.5466,-3.5472,-3.5489,-3.5527,-3.5533,-3.5538,-3.5559,-3.5566,-3.5478,-3.5478,-3.5478,0,-3.476,-3.4841,-3.4878,-3.4933,-3.4969,-3.4994,-3.5048,-3.5086,-3.5162,-3.5187,-3.5181,-3.5299,-3.5341,-3.5421,-3.5436,-3.5463,-3.5478,-3.5463,-3.5529,-3.5535,-3.554,-3.556,-3.5568,-3.5478,-3.5478,-3.5478,-3.5478,0,-3.4842,-3.4897,-3.4933,-3.5006,-3.5047,-3.5101,-3.5145,-3.5182,-3.5201,-3.5234,-3.5304,-3.5355,-3.542,-3.5441,-3.546,-3.5524,-3.552,-3.5521,-3.551,-3.5546,-3.5566,-3.5574,-3.5478,-3.5478,-3.5478,-3.5478,0,0,-3.4876,-3.497,-3.4982,-3.5015,-3.5087,-3.513,-3.5185,-3.5249,-3.5279,-3.5331,-3.5378,-3.5457,-3.5459,-3.5497,-3.5521,-3.5555,-3.5599,-3.5553,-3.5555,-3.5558,-3.5672,-3.5669,-3.5677,-3.5607,-3.5609,-3.561,-3.5666,0,-3.4928,-3.5027,-3.5062,-3.5144,-3.5195,-3.5221,-3.5269,-3.5317,-3.535,-3.5398,-3.5435,-3.549,-3.5489,-3.5512,-3.5547,-3.5586,-3.5622,-3.5583,-3.565,-3.5652,-3.5633,-3.5687,-3.5684,-3.5735,-3.5674,-3.5676,-3.5677,0,-3.5001,-3.5054,-3.5141,-3.5206,-3.5229,-3.5271,-3.5332,-3.5378,-3.5434,-3.5455,-3.5498,-3.552,-3.5578,-3.5565,-3.5646,-3.5619,-3.5649,-3.5673,-3.5675,-3.5681,-3.5665,-3.5694,-3.5752,-3.5759,-3.5689,-3.5688,-3.5687,0,-3.5015,-3.5109,-3.5173,-3.5201,-3.5279,-3.5308,-3.5341,-3.5396,-3.5432,-3.5485,-3.5509,-3.5568,-3.56,-3.5646,-3.5683,-3.567,-3.5761,-3.5751,-3.5779,-3.5778,-3.5795,-3.5793,-3.5858,-3.5817,-3.5817,-3.5817,-3.5817,0,-3.5068,-3.512,-3.5181,-3.522,-3.5279,-3.5319,-3.5376,-3.5411,-3.546,-3.5506,-3.5532,-3.5575,-3.5622,-3.5671,-3.5701,-3.5763,-3.5778,-3.5796,-3.5803,-3.5793,-3.579,-3.5812,-3.5809,-3.5819,-3.5819,-3.5818,-3.5818,0,-3.5094,-3.5136,-3.5208,-3.5275,-3.5294,-3.5334,-3.5392,-3.5431,-3.5465,-3.5523,-3.5539,-3.5593,-3.5652,-3.5694,-3.5771,-3.5791,-3.5857,-3.5864,-3.5838,-3.5841,-3.5866,-3.5863,-3.5945,-3.5958,-3.591,-3.5911,-3.5911,0,-3.5124,-3.5164,-3.5236,-3.5269,-3.5303,-3.5356,-3.5392,-3.5434,-3.5471,-3.5538,-3.5569,-3.563,-3.568,-3.5774,-3.582,-3.5878,-3.5886,-3.5911,-3.5895,-3.5884,-3.5885,-3.5882,-3.5886,-3.5913,-3.5913,-3.5913,-3.5914,0,-3.5172,-3.5192,-3.5244,-3.5303,-3.5347,-3.5396,-3.5445,-3.547,-3.552,-3.5561,-3.5622,-3.5661,-3.5739,-3.5799,-3.5862,-3.5897,-3.5913,-3.5919,-3.5928,-3.5917,-3.59,-3.5908,-3.5842,-3.5916,-3.5916,-3.5916,-3.5916,-3.5916,-3.5201,-3.5237,-3.5294,-3.5351,-3.5393,-3.5438,-3.5478,-3.5517,-3.5569,-3.5635,-3.5657,-3.572,-3.5775,-3.5861,-3.5897,-3.5947,-3.5945,-3.5959,-3.5963,-3.5965,-3.5964,-3.5893,-3.5958,-3.5958,-3.5958,-3.5958,-3.5958,0,-3.5249,-3.5287,-3.5339,-3.5407,-3.5452,-3.5465,-3.552,-3.5557,-3.5612,-3.5662,-3.5712,-3.5781,-3.584,-3.5891,-3.5951,-3.5981,-3.5991,-3.5996,-3.5993,-3.6001,-3.5962,-3.5947,-3.5987,-3.5987,-3.5987,-3.5987,-3.5987,-3.5987,-3.528,-3.5343,-3.5369,-3.5453,-3.549,-3.5552,-3.5582,-3.5624,-3.5665,-3.5741,-3.579,-3.5823,-3.5874,-3.5938,-3.5992,-3.6006,-3.6026,-3.603,-3.6045,-3.6007,-3.6004,-3.6,-3.5986,-3.6034,-3.6034,-3.6079,-3.608,-3.608]},{"header":{"parameterUnit":"m.s-1","parameterCategory":1,"la1":30.2991,"la2":30.254,"lo1":-89.0895,"lo2":-89.0444,"dy":0.0017,"dx":0.0017,"nx":28,"ny":28,"refTime":"2024-05-31T03:00:00:Z","depth":0,"parameterNumber":3,"parameterNumberName":"V-component_of_WINDS"},"data":[0,0,0,0,0,0,0,0,0,0,0,0,0,0,0,0,0,0,0,0,0,0,0,0,0,0,0,0,0,0,0,0,0,0,0,0,0,0,0,0,0,0,0,0,0,0,0,0,0,0,0,0,0,0,0,0,0,0,6.0541,6.0541,0,6.0544,6.0544,6.0544,6.0463,6.0461,6.0459,6.0457,6.0459,6.0461,6.0463,0,0,0,0,0,0,0,0,0,0,0,0,0,6.0463,6.0465,6.0541,6.0541,6.0541,6.0544,6.0544,6.0544,6.0464,6.0461,6.0458,6.0456,6.0459,6.0461,6.0464,0,0,0,0,0,0,0,0,0,0,0,0,0,6.0485,6.0466,6.0541,6.0501,6.0498,6.0544,6.0544,6.0544,6.0464,6.0461,6.0458,6.0455,6.0458,6.0461,6.0464,6.0548,0,0,6.0473,6.0475,0,0,0,0,0,0,0,0,6.0484,6.0488,6.0507,6.0504,6.05,6.05,6.0518,6.0546,6.0465,6.0477,6.0457,6.0453,6.0475,6.0477,6.0485,6.0548,6.0549,6.0474,6.0476,6.0477,6.0478,0,0,0,0,0,0,0,6.0483,6.0487,6.0542,6.0507,6.0503,6.0483,6.0482,6.0523,6.0494,6.0476,6.047,6.0471,6.0473,6.0482,6.0484,6.0549,6.0474,6.0476,6.0478,6.048,6.068,6.0683,0,0,0,0,0,0,6.0487,6.0487,6.0542,6.0542,6.0484,6.0487,6.0486,6.0503,6.0494,6.0489,6.0474,6.0467,6.0478,6.048,6.0484,6.058,6.0477,6.048,6.0482,6.0676,6.068,6.0684,0,0,0,0,0,0,6.0485,6.0492,6.0542,6.0513,6.0518,6.0492,6.0512,6.0505,6.0514,6.0492,6.0487,6.0488,6.0476,6.0479,6.0532,6.0579,6.0481,6.0484,6.0672,6.0678,6.0682,6.0774,0,0,0,0,0,0,6.0483,6.0492,6.0525,6.0514,6.052,6.0591,6.0514,6.0508,6.052,6.0511,6.0504,6.05,6.0473,6.0528,6.0536,6.0581,6.0487,6.0668,6.0675,6.0681,6.0767,6.0782,6.0795,0,0,0,0,0,6.0481,6.0551,6.0527,6.0534,6.0559,6.0594,6.0597,6.0565,6.0524,6.0555,6.0541,6.05,6.0573,6.0534,6.0542,6.0589,6.0665,6.0673,6.068,6.0761,6.0779,6.0794,0,0,0,0,0,0,6.0567,6.0548,6.0522,6.059,6.0594,6.058,6.0619,6.0586,6.0601,6.0592,6.0552,6.0551,6.061,6.0605,6.0562,6.067,6.0612,6.0621,6.067,6.0687,6.0701,6.07,6.0489,0,0,0,0,0,6.0594,6.0624,6.0606,6.0668,6.0672,6.0646,6.066,6.0634,6.0637,6.0638,6.0628,6.0632,6.0655,6.0671,6.0692,6.0767,6.0763,6.0803,6.0817,6.0829,6.0837,6.0874,6.089,6.071,6.071,6.0709,0,0,6.0649,6.0643,6.0665,6.0685,6.0686,6.0717,6.0647,6.0684,6.0706,6.0644,6.0692,6.0686,6.0687,6.0751,6.0778,6.0748,6.0886,6.0839,6.0848,6.0849,6.0883,6.09,6.0916,6.0715,6.0714,6.0713,0,0,6.0766,6.0766,6.0816,6.0818,6.0819,6.0801,6.0814,6.0805,6.0798,6.0846,6.0799,6.0826,6.0868,6.087,6.0876,6.0994,6.0956,6.1003,6.1074,6.1111,6.1125,6.1137,6.1177,6.1192,6.1011,6.1011,6.1012,0,6.0835,6.0881,6.0846,6.0885,6.0895,6.0841,6.089,6.0894,6.0902,6.091,6.0877,6.0927,6.0924,6.0987,6.1015,6.1024,6.1035,6.1002,6.1126,6.1138,6.1149,6.1186,6.1202,6.1017,6.1016,6.1016,6.1015,0,6.0964,6.0996,6.1037,6.1045,6.106,6.1105,6.1077,6.1096,6.107,6.1055,6.1105,6.11,6.1117,6.1131,6.1106,6.119,6.1171,6.1133,6.1073,6.1172,6.1206,6.1221,6.1024,6.1023,6.1021,6.102,0,0,6.1133,6.1122,6.1138,6.114,6.1138,6.1162,6.1204,6.1221,6.1237,6.1245,6.1278,6.1315,6.1279,6.1287,6.1262,6.1295,6.1385,6.1252,6.1251,6.1275,6.1474,6.1501,6.1518,6.1362,6.1364,6.1366,6.1473,0,6.1244,6.1315,6.1285,6.1358,6.1386,6.1335,6.1371,6.1373,6.1361,6.1383,6.1369,6.1395,6.1348,6.1352,6.1382,6.1368,6.1424,6.136,6.139,6.1391,6.1388,6.1537,6.1565,6.1666,6.1487,6.1489,6.1491,0,6.1383,6.1396,6.1472,6.1463,6.1473,6.1506,6.1519,6.1542,6.1543,6.1531,6.154,6.1508,6.1548,6.1491,6.1544,6.1501,6.1511,6.1507,6.151,6.1509,6.1445,6.1537,6.1698,6.1712,6.1512,6.151,6.1509,0,6.1495,6.1532,6.1581,6.1585,6.1577,6.1601,6.1599,6.1597,6.1609,6.1621,6.1628,6.1644,6.1653,6.1666,6.1639,6.16,6.1695,6.1636,6.1685,6.1686,6.1705,6.1704,6.1867,6.1717,6.1717,6.1717,6.1716,0,6.1621,6.1668,6.1631,6.1661,6.1713,6.1679,6.1731,6.1723,6.1721,6.1748,6.1706,6.1733,6.1696,6.1719,6.1699,6.1744,6.1749,6.174,6.1733,6.1742,6.1743,6.1747,6.1738,6.1721,6.172,6.1719,6.1718,0,6.1754,6.1731,6.1781,6.1769,6.1767,6.1806,6.1795,6.1822,6.1807,6.1842,6.1848,6.1825,6.1849,6.1824,6.1848,6.1833,6.1894,6.1879,6.1894,6.1888,6.1938,6.1932,6.2107,6.2127,6.1967,6.1969,6.197,0,6.1834,6.1869,6.1861,6.1876,6.1876,6.1901,6.1913,6.1881,6.1895,6.1899,6.1925,6.1946,6.1961,6.2002,6.1987,6.2004,6.1987,6.2047,6.1989,6.1997,6.1985,6.1982,6.1984,6.2058,6.206,6.2062,6.2063,0,6.1978,6.1965,6.1983,6.1998,6.2014,6.2024,6.2031,6.2046,6.2012,6.203,6.2055,6.2066,6.2089,6.211,6.2123,6.212,6.2086,6.2082,6.2093,6.2101,6.2107,6.2102,6.1923,6.2077,6.2076,6.2075,6.2074,6.2073,6.2085,6.2113,6.2111,6.2133,6.2135,6.2142,6.2166,6.2155,6.2175,6.219,6.2171,6.22,6.22,6.2213,6.2215,6.2237,6.2211,6.2229,6.2233,6.2237,6.2243,6.2106,6.2239,6.2239,6.2239,6.2238,6.2238,0,6.2224,6.222,6.2241,6.2252,6.2269,6.2236,6.2242,6.2258,6.2285,6.2287,6.2303,6.233,6.235,6.2337,6.2354,6.2374,6.2358,6.2379,6.2376,6.2375,6.2266,6.2253,6.2391,6.2391,6.2391,6.2391,6.2391,6.2391,6.2298,6.2343,6.233,6.2376,6.2372,6.24,6.2406,6.2412,6.2414,6.2446,6.2462,6.2454,6.245,6.2466,6.2482,6.2478,6.2485,6.2511,6.25,6.2398,6.2383,6.2369,6.2356,6.2513,6.2513,6.2607,6.2608,6.2608]}]]